Location: Marne
(34.0056°N, 117.9064°W)
Time: 04:00:25
(UTC+00:00)

Cosmos 1461 - Pass Details

Date: 18 January 2020
Orbit: 516 x 651 km, 65.0° (Epoch: 17 February)

Event Time Altitude Azimuth Distance (km) Brightness Sun altitude
Rises 02:08:17 0° 339° (NNW) 2,820 6.5 -12.7°
Reaches altitude 10° 02:10:35 10° 346° (NNW) 1,939 5.6 -13.1°
Maximum altitude 02:14:46 42° 58° (ENE) 884 3.4 -14.0°
Drops below altitude 10° 02:19:03 10° 129° (SE) 2,002 5.3 -14.8°
Enters shadow 02:20:02 - 133° (SE) 2,367 5.7 -15.0°
